ONEWEB-0697, 61603

Orbit data source: Space-Track

ONEWEB-0697, 61603 is a payload satellite owned by Eut. One Web (UK) in LEO that was launched on Sun, 20 Oct 2024 UTC via an FALCON 9 launch vehicle from the Air Force Western Test Range (AFWTR). Payload-class satellites include a variety of spacecraft equipped with specific instruments for various scientific and technological missions. These include communications satellites like Starlink; space stations such as the ISS; scientific satellites like the Hubble; Earth observation satellites from companies like Planet Labs, Umbra, and HawkEye 360; GPS; miniature CubeSats for education and research; and military/defense satellites.

Loading next visibility...
Identifier
61603, 2024-188K
Orbit
LEO
Last TLE update
9 hours ago
Origin
Manufacturer
One Web
Mission
Operational Commercial Communications
Bus & Motor
ARROW, Unknown motor
Mass
148 kg wet, ~140 kg dry
Launch date (UTC)
2024-10-20 (7 months ago)
Launch vehicle
FALCON 9
Launch site
Air Force Western Test Range (AFWTR)
Object type
Payload
Rocket body
Debris
Shape & HBR
Trap Box + 2 Pan, 5 m
Radar Cross Section
2.032 m², Large (>1 m²)

Expand to show TLE details & history

TLE from 9 hours ago
0 ONEWEB-0697
1 61603U 24188K   25132.89553829  .00000510  00000-0  14033-2 0  9990
2 61603  87.8793 100.8890 0002057 109.9723 250.1626 13.11414816 31984
Epoch: 2025-05-12T21:29Z
Definitive object data (Epoch: 2025-05-12T21:29:34.508Z)
Latitude
-0.00007°
Longitude
-92.40684°
Altitude
1,221.111 km
Speed
7.244 km/s
True Right ascension
06h 43m 33s
True Declination
0° 00' 00"
Sunlit
Object was in daylight at TLE epoch
Visualization TLE readout
Latitude
-72.20821°
Longitude
-99.07272°
Altitude
1,246.017 km
Speed
7.231 km/s
Apparent Right ascension
03h 48m 20s
Apparent Declination
-59° 54' 26"
Sunlit
Object is in daylight
Visualization observer readout
Local Sidereal Time
14:41:24
Azimuth
202.097° SSW
Elevation
-67.439°
Doppler factor
1
Orbital elements
Apogee altitude
1,216.371 km
Perigee altitude
1,213.247 km
Semi-major axis
7,592.946 km
Eccentricity
0.0002057
Inclination
87.8793°
RAAN
100.889°
Arg. of periapsis
109.9723°
True anomaly
250.14043°
Mean anomaly
250.1626°
Eccentric anomaly
250.15151°
Mean motion
3.28041 °/min
BSTAR
0.0014033
Orbital period
109.74 mins
Loading maneuver chart data...
Loading SW <> Apogee altitude chart data...
Loading historical data...
Loading historical data...
Loading historical data...
Loading historical data...
Loading historical data...
Loading historical data...
Loading historical data...

ONEWEB-0697 Visibility forecast

Observer location: undefined°, undefined°

Span
Click to sort rows by Start time (UTC) header in descending order
Start Az.
Max El. time (UTC)
Max El. Az.
Max El.
End time (UTC)
End Az.
12 mins2025-05-13 09:04:50.225Z17.274° NNE2025-05-13 09:10:50.225Z74.621° E30.017°2025-05-13 09:16:50.225Z140.804° SSE
11 mins2025-05-13 10:55:50.225Z339.559° N2025-05-13 11:00:50.225Z283.923° WNW33.179°2025-05-13 11:06:50.225Z215.69° SW
12 mins2025-05-13 21:24:50.225Z141.744° SSE2025-05-13 21:29:50.225Z88.957° E32.357°2025-05-13 21:36:50.225Z15.881° NNE
11 mins2025-05-13 23:14:50.225Z219.698° SW2025-05-13 23:19:50.225Z273.933° WNW30.794°2025-05-13 23:25:50.225Z340.227° N
|